Home > Weather > Glace Bay > Past weeks

Flag for Canada Weather for the Past 2 Weeks in Glace Bay, Nova Scotia, Canada

Now
27 °F

Light snow. Low clouds.


Feels Like: 17 °F
Forecast: 14 / 29 °F
Wind: 9 mph from Northwest

Location: Sydney

Current Time: Feb 12, 2016 at 6:45:04 AM

Latest Report: Feb 12, 2016 at 6:00 AM


Visibility: 5 mi

Pressure: 29.54 "Hg

Humidity: 100%

Dew point: 27 °F

Location of Glace BayLocation

Historic Weather in Glace Bay — Graph

°F

Glace Bay Temperature Yesterday

Maximum temperature yesterday: 34 °F (at 3:00 PM)
Minimum temperature yesterday: 14 °F (at 12:00 AM)
Average temperature yesterday: 23 °F

High & Low Weather Summary for the Past Weeks

 TemperatureHumidityPressure
High48 °F (Feb 4, 12:00 PM)100% (Jan 29, 5:00 AM)30.50 "Hg (Jan 29, 5:00 AM)
Low12 °F (Feb 10, 10:00 PM)34% (Jan 28, 3:00 PM)28.79 "Hg (Jan 29, 10:00 PM)
Average29 °F86%29.82 "Hg
* Reported Jan 28 5:00 AM — Feb 12 5:00 AM, Glace Bay, Weather by CustomWeather, © 2016

Note: Actual official high and low records may vary slightly from our data, if they occured in-between our weather recording intervals... More about our weather records

Advertising

Glace Bay Weather History for the Previous 24 Hours

 ConditionsComfort  
Time TempWeatherWind HumidityBarometerVisibility
5:00 AM
Fri, Feb 12
25 °FLight snow. Low clouds.6 mph100%29.52 "Hg1 mi
4:46 AM25 °FLight snow. Low clouds.6 mph100%29.51 "Hg1 mi
4:00 AM23 °FLight snow. Mostly cloudy.No wind93%29.50 "Hg4 mi
3:47 AM23 °FLight snow. Mostly cloudy.3 mph100%29.49 "Hg6 mi
3:00 AM21 °FPartly cloudy.2 mph100%29.50 "Hg10 mi
2:00 AM23 °FLight snow. Mostly cloudy.2 mph100%29.51 "Hg2 mi
1:00 AM25 °FLight snow. Mostly cloudy.3 mph100%29.51 "Hg4 mi
12:00 AM27 °FLight snow. Mostly cloudy.6 mph93%29.52 "Hg3 mi
11:00 PM
Thu, Feb 11
25 °FLight snow. Mostly cloudy.6 mph93%29.54 "Hg10 mi
10:03 PM25 °FLight snow. Passing clouds.5 mph93%29.54 "Hg8 mi
9:00 PM21 °FPassing clouds.8 mph100%29.56 "Hg15 mi
8:00 PM23 °FPassing clouds.6 mph93%29.56 "Hg15 mi
7:00 PM25 °FPassing clouds.6 mph93%29.55 "Hg15 mi
5:00 PM28 °FPartly sunny.13 mph86%29.56 "Hg15 mi
4:00 PM30 °FBroken clouds.13 mph80%29.54 "Hg15 mi
3:00 PM34 °FBroken clouds.5 mph60%29.53 "Hg15 mi
2:00 PM30 °FPassing clouds.3 mph64%29.52 "Hg15 mi
1:00 PM30 °FPassing clouds.No wind69%29.52 "Hg15 mi
12:00 PM28 °FScattered clouds.7 mph69%29.52 "Hg15 mi
11:00 AM27 °FLight snow. Broken clouds.6 mph86%29.54 "Hg10 mi
10:00 AM25 °FLight snow. Mostly cloudy.6 mph93%29.54 "Hg6 mi
9:56 AM25 °FLight snow. Mostly cloudy.6 mph93%29.54 "Hg5 mi
9:00 AM23 °FLight snow. Overcast.5 mph93%29.55 "Hg1 mi
8:00 AM21 °FLight snow. Low clouds.5 mph93%29.54 "Hg1 mi
7:00 AM21 °FLight snow. Overcast.2 mph93%29.53 "Hg5 mi
6:00 AM21 °FLight snow. Overcast.3 mph93%29.53 "Hg4 mi
Weather by CustomWeather, © 2016

See weather overviewHow to use our weather pages